QPF
0.00 0.00 0.00 0.00 0.00 0.00 0.00 0.00 0.00 0.00 0.00 0.00 0.00 0.00 0.00 0.00 0.00 0.00 0.00 0.00 0.00 0.00 0.00 0.00 0.00 0.00 0.00 0.00 0.00 0.00 0.00 0.00 0.00 0.00 0.00 0.00 0.00 0.00 0.00 0.00 0.00 0.00 0.00
0.00 0.00 0.00 0.00 0.00 0.00 0.00 0.00 0.00 0.00 0.00 0.00 0.00 0.00 0.00 0.00 0.00 0.00 0.00 0.00 0.00 0.00 0.00 0.00 0.00 0.00 0.00 0.00 0.00 0.00 0.00 0.00 0.00 0.00 0.00 0.00 0.00 0.00 0.00 0.00 0.00 0.00 0.00
0.00 0.00 0.00 0.00 0.00 0.00 0.00 0.00 0.00 0.00 0.00 0.00 0.00 0.00 0.00 0.00 0.00 0.00 0.00 0.00 0.00 0.00 0.00 0.00 0.00 0.00 0.00 0.00 0.00 0.00 0.00 0.00 0.00 0.00 0.00 0.00 0.00 0.00 0.00 0.00 0.01 0.01 0.01
0.00 0.00 0.00 0.00 0.00 0.00 0.00 0.00 0.00 0.00 0.00 0.00 0.00 0.00 0.00 0.00 0.00 0.00 0.00 0.00 0.00 0.00 0.00 0.00 0.00 0.00 0.00 0.00 0.00 0.00 0.00 0.00 0.00 0.00 0.00 0.00 0.00 0.00 0.00 0.00 0.01 0.01 0.01
0.00 0.00 0.00 0.00 0.00 0.00 0.00 0.00 0.00 0.00 0.00 0.00 0.00 0.00 0.00 0.00 0.00 0.00 0.00 0.00 0.00 0.00 0.00 0.00 0.00 0.00 0.00 0.00 0.00 0.00 0.00 0.00 0.00 0.00 0.00 0.00 0.00 0.00 0.00 0.00 0.00 0.00 0.01
0.00 0.00 0.00 0.00 0.00 0.00 0.00 0.00 0.00 0.00 0.00 0.00 0.00 0.00 0.00 0.00 0.00 0.00 0.00 0.00 0.00 0.00 0.00 0.00 0.00 0.00 0.00 0.00 0.00 0.00 0.00 0.00 0.00 0.00 0.00 0.00 0.00 0.00 0.00 0.00 0.00 0.00 0.00
0.00 0.00 0.00 0.00 0.00 0.00 0.00 0.00 0.00 0.00 0.00 0.00 0.00 0.00 0.00 0.00 0.00 0.00 0.00 0.00 0.00 0.00 0.00 0.00 0.00 0.00 0.00 0.00 0.00 0.00 0.00 0.00 0.00 0.00 0.00 0.00 0.00 0.00 0.00 0.00 0.00 0.00 0.00
0.00 0.00 0.00 0.00 0.00 0.00 0.00 0.00 0.00 0.00 0.00 0.00 0.00 0.00 0.00 0.00 0.00 0.00 0.00 0.00 0.00 0.00 0.00 0.00 0.00 0.00 0.00 0.00 0.00 0.00 0.00 0.00 0.00 0.00 0.00 0.00 0.00 0.00 0.00 0.00 0.00 0.00 0.00
0.00 0.00 0.00 0.00 0.00 0.00 0.00 0.00 0.00 0.00 0.00 0.00 0.00 0.00 0.00 0.00 0.00 0.00 0.00 0.00 0.00 0.00 0.00 0.00 0.00 0.00 0.00 0.00 0.00 0.00 0.00 0.00 0.00 0.00 0.00 0.00 0.00 0.00 0.00 0.00 0.00 0.00 0.00
0.00 0.00 0.00 0.00 0.00 0.00 0.00 0.00 0.00 0.00 0.00 0.00 0.00 0.00 0.00 0.00 0.00 0.00 0.00 0.00 0.00 0.00 0.00 0.00 0.00 0.00 0.00 0.00 0.00 0.00 0.00 0.00 0.00 0.00 0.00 0.00 0.00 0.00 0.00 0.00 0.00 0.00 0.00
0.00 0.00 0.00 0.00 0.00 0.00 0.00 0.00 0.00 0.00 0.00 0.00 0.00 0.00 0.00 0.00 0.00 0.00 0.00 0.00 0.00 0.00 0.00 0.00 0.00 0.00 0.00 0.00 0.00 0.00 0.00 0.00 0.00 0.00 0.00 0.00 0.00 0.00 0.00 0.00 0.00 0.00 0.00
0.00 0.00 0.00 0.00 0.00 0.00 0.00 0.00 0.00 0.00 0.00 0.00 0.00 0.00 0.00 0.00 0.00 0.00 0.00 0.00 0.00 0.00 0.00 0.00 0.00 0.00 0.00 0.00 0.00 0.00 0.00 0.00 0.00 0.00 0.00 0.00 0.00 0.00 0.00 0.00 0.00 0.00 0.00
0.00 0.00 0.00 0.00 0.00 0.00 0.00 0.00 0.00 0.00 0.00 0.00 0.00 0.00 0.00 0.00 0.00 0.00 0.00 0.00 0.00 0.00 0.00 0.00 0.00 0.00 0.00 0.00 0.00 0.00 0.00 0.00 0.00 0.00 0.00 0.00 0.00 0.00 0.00 0.00 0.00 0.00 0.00
0.00 0.00 0.00 0.00 0.00 0.00 0.00 0.00 0.00 0.00 0.00 0.00 0.00 0.00 0.00 0.00 0.00 0.00 0.00 0.00 0.00 0.00 0.00 0.00 0.00 0.00 0.00 0.00 0.00 0.00 0.00 0.00 0.00 0.00 0.00 0.00 0.00 0.00 0.00 0.00 0.00 0.00 0.00
0.00 0.00 0.00 0.00 0.00 0.00 0.00 0.00 0.00 0.00 0.00 0.00 0.00 0.00 0.00 0.00 0.00 0.00 0.00 0.00 0.00 0.00 0.00 0.00 0.00 0.00 0.00 0.00 0.00 0.00 0.00 0.00 0.00 0.00 0.00 0.00 0.00 0.00 0.00 0.00 0.00 0.00 0.00
0.00 0.00 0.00 0.00 0.00 0.00 0.00 0.00 0.00 0.00 0.00 0.00 0.00 0.00 0.00 0.00 0.00 0.00 0.00 0.00 0.00 0.00 0.00 0.00 0.00 0.00 0.00 0.00 0.00 0.00 0.00 0.00 0.00 0.00 0.00 0.00 0.00 0.00 0.00 0.00 0.00 0.00 0.00
0.00 0.00 0.00 0.00 0.00 0.00 0.00 0.00 0.00 0.00 0.00 0.00 0.00 0.00 0.00 0.00 0.00 0.00 0.00 0.00 0.00 0.00 0.00 0.00 0.00 0.00 0.00 0.00 0.00 0.00 0.00 0.00 0.00 0.00 0.00 0.00 0.00 0.00 0.00 0.00 0.00 0.00 0.00
0.00 0.00 0.00 0.00 0.00 0.00 0.00 0.00 0.00 0.00 0.00 0.00 0.00 0.00 0.00 0.00 0.00 0.00 0.00 0.00 0.00 0.00 0.00 0.00 0.00 0.00 0.00 0.00 0.00 0.00 0.00 0.00 0.00 0.00 0.00 0.00 0.00 0.00 0.00 0.00 0.00 0.00 0.00
0.00 0.00 0.00 0.00 0.00 0.00 0.00 0.00 0.00 0.00 0.00 0.00 0.00 0.00 0.00 0.00 0.00 0.00 0.00 0.00 0.00 0.00 0.00 0.00 0.00 0.00 0.00 0.00 0.00 0.00 0.00 0.00 0.00 0.00 0.00 0.00 0.00 0.00 0.00 0.00 0.00 0.00 0.00
0.00 0.00 0.00 0.00 0.00 0.00 0.00 0.00 0.00 0.00 0.00 0.00 0.00 0.00 0.00 0.00 0.00 0.00 0.00 0.00 0.00 0.00 0.00 0.00 0.00 0.00 0.00 0.00 0.00 0.00 0.00 0.00 0.00 0.00 0.00 0.00 0.00 0.00 0.00 0.00 0.00 0.00 0.00
0.00 0.00 0.00 0.00 0.00 0.00 0.00 0.00 0.00 0.00 0.00 0.00 0.00 0.00 0.00 0.00 0.00 0.00 0.00 0.00 0.00 0.00 0.00 0.00 0.00 0.00 0.00 0.00 0.00 0.00 0.00 0.00 0.00 0.00 0.00 0.00 0.00 0.00 0.00 0.00 0.00 0.00 0.00
0.00 0.00 0.00 0.00 0.00 0.00 0.00 0.00 0.00 0.00 0.00 0.00 0.00 0.00 0.00 0.00 0.00 0.00 0.00 0.00 0.00 0.00 0.00 0.00 0.00 0.00 0.00 0.00 0.00 0.00 0.00 0.00 0.00 0.00 0.00 0.00 0.00 0.00 0.00 0.00 0.00 0.00 0.00
0.00 0.00 0.00 0.00 0.00 0.00 0.00 0.00 0.00 0.00 0.00 0.00 0.00 0.00 0.00 0.00 0.00 0.00 0.00 0.00 0.00 0.00 0.00 0.00 0.00 0.00 0.00 0.00 0.00 0.00 0.00 0.00 0.00 0.00 0.00 0.00 0.00 0.00 0.00 0.00 0.00 0.00 0.00
0.00 0.00 0.00 0.00 0.00 0.00 0.00 0.00 0.00 0.00 0.00 0.00 0.00 0.00 0.00 0.00 0.00 0.00 0.00 0.00 0.00 0.00 0.00 0.00 0.00 0.00 0.00 0.00 0.00 0.00 0.00 0.00 0.00 0.00 0.00 0.00 0.00 0.00 0.00 0.00 0.00 0.00 0.00
0.00 0.00 0.00 0.00 0.00 0.00 0.00 0.00 0.00 0.00 0.00 0.00 0.00 0.00 0.00 0.00 0.00 0.00 0.00 0.00 0.00 0.00 0.00 0.00 0.00 0.00 0.00 0.00 0.00 0.00 0.00 0.00 0.00 0.00 0.00 0.00 0.00 0.00 0.00 0.00 0.00 0.00 0.00
0.00 0.00 0.00 0.00 0.00 0.00 0.00 0.00 0.00 0.00 0.00 0.00 0.00 0.00 0.00 0.00 0.00 0.00 0.00 0.00 0.00 0.00 0.00 0.00 0.00 0.00 0.00 0.00 0.00 0.00 0.00 0.00 0.00 0.00 0.00 0.00 0.00 0.00 0.00 0.00 0.00 0.00 0.00
MSLP
1014.56 1014.36 1014.42 1014.50 1014.76 1015.23 1015.57 1015.75 1015.94 1016.02 1016.08 1016.25 1016.43 1016.72 1016.97 1017.05 1017.20 1017.53 1017.30 1017.37 1017.35 1017.47 1017.48 1017.44 1017.43 1017.38 1017.30 1017.16 1017.01 1016.80 1016.81 1016.80 1016.67 1016.53 1016.35 1016.13 1015.92 1015.42 1014.93 1015.05 1015.09 1015.06 1014.91
1014.13 1014.19 1014.38 1014.75 1015.05 1015.45 1015.88 1016.11 1016.43 1016.54 1016.43 1016.71 1016.74 1017.00 1017.47 1017.48 1017.61 1017.89 1017.71 1017.72 1017.80 1017.82 1017.83 1017.84 1017.88 1017.76 1017.64 1017.49 1017.40 1017.32 1017.19 1017.25 1017.16 1017.04 1016.81 1016.67 1016.31 1015.79 1015.31 1015.16 1015.20 1015.17 1014.98
1014.08 1014.19 1014.63 1014.92 1015.17 1015.65 1016.19 1016.51 1016.82 1017.01 1016.91 1017.03 1017.13 1017.21 1017.62 1017.88 1018.03 1018.15 1018.06 1018.16 1018.15 1018.19 1018.22 1018.14 1018.11 1017.98 1017.89 1017.86 1017.69 1017.78 1017.63 1017.68 1017.63 1017.45 1017.27 1017.12 1016.84 1016.06 1015.59 1015.25 1015.23 1015.23 1015.12
1014.00 1014.34 1014.88 1015.12 1015.38 1015.90 1016.48 1016.92 1017.11 1017.25 1017.23 1017.26 1017.55 1017.57 1017.96 1018.12 1018.44 1018.58 1018.46 1018.63 1018.64 1018.57 1018.52 1018.48 1018.41 1018.29 1018.25 1018.20 1018.01 1018.03 1018.04 1018.02 1018.21 1018.04 1017.92 1017.55 1017.22 1016.40 1015.82 1015.50 1015.33 1015.39 1015.29
1014.40 1014.62 1014.91 1015.15 1015.53 1016.18 1016.65 1017.07 1017.35 1017.38 1017.33 1017.66 1017.90 1017.93 1018.28 1018.49 1018.71 1018.93 1018.91 1019.09 1019.11 1018.91 1018.90 1018.81 1018.74 1018.62 1018.50 1018.34 1018.39 1018.34 1018.37 1018.36 1018.65 1018.67 1018.50 1017.95 1017.60 1016.80 1016.11 1015.84 1015.88 1015.75 1015.59
1014.72 1014.81 1014.94 1015.27 1015.86 1016.44 1016.80 1017.09 1017.55 1017.35 1017.62 1017.79 1018.06 1018.36 1018.54 1018.85 1018.92 1019.21 1019.26 1019.45 1019.38 1019.17 1019.10 1019.12 1019.03 1018.80 1018.83 1018.78 1018.70 1018.74 1018.68 1018.77 1019.09 1019.06 1018.90 1018.49 1018.02 1017.09 1016.60 1016.28 1016.18 1016.09 1016.02
1014.84 1014.80 1015.16 1015.49 1016.12 1016.68 1016.94 1017.21 1017.38 1017.63 1017.94 1018.13 1018.19 1018.47 1018.87 1019.06 1019.19 1019.39 1019.59 1019.69 1019.60 1019.45 1019.39 1019.41 1019.39 1019.17 1019.32 1019.09 1019.15 1019.21 1019.06 1019.10 1019.41 1019.41 1019.22 1018.98 1018.45 1017.47 1016.99 1016.65 1016.48 1016.33 1016.20
1014.76 1015.11 1015.34 1015.67 1016.15 1016.93 1017.18 1017.37 1017.32 1017.88 1018.16 1018.20 1018.56 1018.73 1018.88 1019.42 1019.54 1019.65 1019.92 1019.92 1019.85 1019.74 1019.86 1019.77 1019.77 1019.64 1019.64 1019.60 1019.58 1019.63 1019.49 1019.45 1019.74 1019.61 1019.36 1019.18 1018.42 1017.78 1017.37 1017.12 1016.86 1016.65 1016.45
1014.92 1015.51 1015.70 1015.77 1016.52 1016.99 1017.33 1017.68 1017.65 1018.10 1018.28 1018.54 1018.92 1019.07 1019.14 1019.82 1019.81 1020.06 1020.34 1020.15 1020.27 1020.24 1020.41 1020.38 1020.26 1020.20 1020.09 1020.11 1019.98 1019.96 1019.95 1019.88 1020.10 1019.94 1019.61 1019.42 1018.61 1018.18 1017.85 1017.51 1017.27 1017.07 1016.86
1015.54 1015.78 1015.97 1016.21 1016.89 1017.13 1017.55 1017.74 1018.13 1018.31 1018.40 1019.00 1019.38 1019.47 1019.60 1020.09 1020.36 1020.78 1020.94 1020.63 1020.88 1020.77 1020.88 1020.86 1020.63 1020.80 1020.65 1020.62 1020.43 1020.36 1020.35 1020.33 1020.37 1020.17 1019.98 1019.57 1018.84 1018.36 1018.11 1017.77 1017.50 1017.21 1016.99
1015.64 1016.06 1016.35 1016.77 1017.24 1017.39 1017.75 1018.05 1018.37 1018.43 1018.86 1019.30 1019.78 1019.84 1020.12 1020.82 1021.22 1021.53 1021.32 1021.37 1021.34 1021.34 1021.37 1021.37 1021.17 1021.28 1021.29 1021.19 1021.05 1020.88 1020.84 1020.87 1020.71 1020.65 1020.46 1019.73 1019.22 1018.86 1018.50 1018.20 1017.89 1017.53 1017.23
1015.57 1016.22 1016.51 1016.97 1017.39 1017.47 1017.84 1018.56 1018.88 1018.91 1019.62 1019.89 1020.24 1020.28 1020.64 1021.22 1021.65 1021.99 1022.05 1021.84 1022.02 1022.13 1021.95 1021.85 1021.73 1021.80 1021.85 1021.81 1021.81 1021.47 1021.42 1021.32 1021.21 1021.15 1020.78 1020.11 1019.57 1019.20 1018.76 1018.44 1018.12 1017.82 1017.53
1015.07 1015.92 1016.52 1016.95 1017.33 1017.61 1018.15 1018.86 1019.29 1019.33 1019.97 1020.34 1020.37 1020.57 1021.12 1021.68 1022.24 1022.49 1022.74 1022.82 1022.80 1022.63 1022.62 1022.52 1022.51 1022.33 1022.16 1022.10 1021.97 1021.81 1021.64 1021.52 1021.49 1021.26 1021.03 1020.32 1019.84 1019.37 1018.94 1018.51 1018.19 1017.86 1017.52
1014.78 1015.30 1016.29 1016.67 1017.21 1017.84 1018.21 1018.95 1019.36 1019.49 1019.95 1020.48 1020.61 1020.93 1021.55 1022.15 1022.51 1022.78 1023.09 1023.00 1022.99 1022.86 1022.84 1022.92 1022.73 1022.46 1022.32 1022.15 1022.10 1021.98 1021.77 1021.69 1021.58 1021.41 1021.07 1020.51 1020.06 1019.56 1019.11 1018.68 1018.24 1017.89 1017.49
1014.21 1015.06 1015.73 1016.45 1017.06 1017.66 1018.26 1018.93 1019.27 1019.49 1019.92 1020.41 1020.74 1021.12 1021.68 1022.21 1022.62 1022.98 1023.09 1023.11 1023.08 1022.99 1023.05 1023.03 1022.82 1022.60 1022.45 1022.31 1022.09 1021.93 1021.76 1021.66 1021.49 1021.20 1021.11 1020.74 1020.22 1019.80 1019.28 1018.81 1018.48 1017.95 1017.58
1013.62 1014.51 1015.18 1015.98 1016.63 1017.41 1018.01 1018.66 1019.05 1019.41 1019.92 1020.44 1020.89 1021.29 1021.73 1022.10 1022.61 1022.90 1023.10 1023.24 1023.10 1023.05 1023.11 1023.04 1022.89 1022.72 1022.66 1022.46 1022.23 1022.01 1021.81 1021.54 1021.37 1021.20 1021.02 1020.84 1020.30 1019.94 1019.55 1019.18 1018.70 1018.25 1017.88
1012.57 1013.71 1014.59 1015.54 1016.32 1017.05 1017.73 1018.34 1018.86 1019.26 1019.91 1020.52 1020.97 1021.34 1021.84 1022.10 1022.47 1022.87 1023.23 1023.22 1023.14 1023.10 1023.08 1023.02 1022.94 1022.79 1022.67 1022.43 1022.38 1022.00 1021.72 1021.46 1021.27 1021.05 1020.77 1020.59 1020.51 1020.20 1019.75 1019.32 1018.86 1018.34 1017.88
1012.10 1013.05 1014.08 1015.00 1015.82 1016.65 1017.29 1018.00 1018.50 1019.12 1019.82 1020.49 1020.95 1021.50 1021.84 1022.07 1022.48 1022.92 1023.07 1023.17 1023.14 1023.17 1023.23 1023.21 1023.22 1023.07 1022.94 1022.87 1022.62 1022.15 1021.89 1021.59 1021.34 1021.08 1020.84 1020.65 1020.57 1020.22 1019.90 1019.49 1018.99 1018.51 1018.21
1011.26 1012.31 1013.39 1014.31 1015.22 1016.12 1017.01 1017.64 1018.35 1019.07 1019.72 1020.46 1021.00 1021.55 1021.81 1022.09 1022.51 1022.74 1022.95 1023.15 1023.13 1023.29 1023.49 1023.42 1023.40 1023.37 1023.45 1023.24 1022.71 1022.09 1021.83 1021.52 1021.23 1020.89 1020.92 1020.78 1020.56 1020.33 1020.10 1019.78 1019.26 1018.86 1018.40
1010.84 1011.72 1012.68 1013.69 1014.75 1015.67 1016.66 1017.51 1018.49 1019.25 1019.94 1020.42 1020.98 1021.44 1021.70 1022.13 1022.39 1022.60 1022.96 1023.09 1023.15 1023.43 1023.62 1023.67 1023.69 1023.69 1023.75 1023.50 1022.78 1022.09 1021.65 1021.34 1021.17 1021.03 1020.96 1020.57 1020.38 1020.15 1019.91 1019.56 1019.19 1018.87 1018.32
1010.44 1011.28 1011.97 1012.87 1013.94 1014.89 1016.07 1017.07 1018.35 1019.11 1019.98 1020.64 1021.00 1021.20 1021.58 1022.02 1022.25 1022.53 1022.84 1023.06 1023.29 1023.51 1023.65 1023.62 1023.81 1023.94 1023.83 1023.46 1023.00 1022.21 1021.62 1021.26 1021.20 1020.95 1020.51 1020.51 1020.24 1020.02 1019.83 1019.40 1018.97 1018.50 1018.04
1009.01 1010.04 1011.04 1011.86 1012.97 1013.93 1014.98 1016.03 1017.25 1018.36 1019.63 1020.16 1020.71 1021.11 1021.48 1021.81 1022.03 1022.31 1022.69 1023.05 1023.21 1023.49 1023.60 1023.71 1023.85 1024.05 1024.03 1023.87 1023.67 1023.23 1022.56 1021.80 1021.28 1020.76 1020.60 1020.28 1019.98 1019.99 1019.68 1019.24 1018.77 1018.21 1017.69
1007.79 1008.58 1009.74 1010.95 1012.14 1013.21 1014.40 1015.88 1017.16 1018.43 1019.72 1020.37 1020.79 1021.17 1021.47 1021.57 1021.79 1022.14 1022.45 1022.75 1023.03 1023.29 1023.58 1023.71 1023.85 1024.10 1024.29 1024.03 1023.64 1023.57 1023.34 1023.09 1022.19 1020.98 1020.55 1020.27 1019.95 1019.88 1019.61 1019.18 1018.63 1017.98 1017.40
1006.22 1007.69 1008.82 1009.90 1011.19 1012.51 1013.73 1014.89 1015.94 1016.96 1018.37 1019.12 1019.95 1020.69 1021.26 1021.40 1021.68 1021.90 1022.17 1022.49 1022.85 1023.23 1023.45 1023.54 1023.69 1024.01 1024.14 1024.10 1023.75 1023.45 1023.48 1023.45 1023.10 1021.81 1020.84 1020.24 1019.91 1019.56 1019.21 1018.80 1018.24 1017.61 1017.11
1005.29 1006.22 1007.49 1008.98 1010.27 1011.49 1012.70 1013.77 1015.03 1016.48 1017.60 1018.54 1019.58 1020.44 1021.03 1021.33 1021.51 1021.68 1021.96 1022.37 1022.73 1023.04 1023.28 1023.49 1023.67 1023.80 1023.88 1023.83 1023.75 1023.57 1023.41 1023.17 1022.95 1022.79 1020.86 1020.03 1019.71 1019.10 1018.69 1018.29 1017.74 1017.20 1016.49
1004.49 1005.78 1007.09 1008.27 1009.42 1010.66 1011.77 1013.02 1014.05 1015.49 1016.87 1018.22 1019.31 1020.24 1020.78 1021.20 1021.52 1021.62 1021.96 1022.24 1022.62 1022.92 1023.20 1023.30 1023.50 1023.61 1023.66 1023.55 1023.49 1023.36 1023.24 1023.16 1022.73 1022.59 1021.52 1020.39 1019.62 1018.18 1018.09 1017.68 1017.13 1016.56 1015.81
Thickness
5703 5704 5702 5703 5703 5698 5695 5693 5692 5694 5695 5695 5695 5692 5691 5691 5690 5686 5689 5688 5688 5686 5686 5686 5686 5687 5687 5689 5689 5690 5690 5690 5691 5692 5693 5693 5693 5696 5699 5697 5697 5698 5698
5705 5703 5701 5700 5699 5696 5692 5689 5687 5688 5692 5690 5693 5690 5685 5685 5685 5682 5684 5683 5682 5682 5681 5681 5681 5682 5682 5683 5684 5684 5684 5684 5684 5685 5687 5688 5689 5691 5694 5694 5694 5694 5696
5703 5700 5697 5697 5696 5693 5688 5685 5683 5683 5686 5687 5688 5688 5683 5681 5679 5678 5679 5677 5677 5676 5676 5676 5676 5677 5677 5677 5678 5677 5678 5677 5677 5678 5680 5682 5683 5686 5690 5692 5692 5692 5692
5700 5697 5693 5693 5693 5688 5683 5680 5680 5680 5682 5684 5681 5682 5678 5677 5674 5673 5673 5670 5670 5670 5671 5670 5670 5671 5671 5671 5672 5671 5671 5670 5669 5670 5672 5675 5677 5681 5686 5688 5689 5689 5690
5694 5693 5691 5692 5690 5684 5681 5678 5676 5677 5681 5677 5676 5676 5673 5672 5670 5667 5667 5665 5664 5665 5665 5664 5664 5665 5665 5665 5665 5664 5664 5664 5662 5663 5664 5668 5672 5675 5680 5682 5681 5683 5684
5689 5690 5689 5688 5684 5680 5678 5677 5672 5677 5675 5674 5672 5669 5669 5666 5666 5663 5662 5659 5659 5661 5660 5658 5658 5660 5659 5658 5658 5658 5658 5657 5656 5657 5658 5660 5664 5668 5672 5674 5675 5676 5677
5687 5688 5685 5683 5679 5676 5674 5673 5673 5672 5669 5668 5669 5666 5663 5663 5661 5658 5655 5654 5654 5655 5654 5653 5652 5653 5651 5652 5651 5650 5652 5651 5650 5651 5651 5653 5657 5661 5665 5667 5668 5669 5671
5686 5682 5681 5679 5678 5671 5669 5669 5671 5666 5665 5665 5662 5662 5661 5656 5654 5652 5649 5648 5649 5649 5648 5647 5647 5646 5645 5644 5644 5643 5644 5645 5644 5644 5645 5646 5650 5654 5657 5659 5661 5662 5663
5679 5677 5677 5678 5671 5667 5665 5663 5665 5662 5661 5659 5656 5656 5657 5649 5649 5646 5642 5643 5642 5642 5640 5640 5639 5638 5638 5636 5636 5635 5635 5636 5636 5636 5637 5638 5641 5644 5647 5650 5652 5654 5655
5673 5673 5672 5671 5665 5665 5662 5661 5658 5657 5657 5652 5650 5650 5650 5644 5641 5637 5634 5636 5634 5634 5632 5631 5632 5629 5629 5628 5627 5627 5627 5627 5627 5627 5628 5629 5633 5636 5638 5641 5643 5645 5647
5668 5667 5666 5664 5661 5661 5659 5656 5653 5653 5650 5647 5644 5645 5643 5637 5632 5628 5627 5627 5626 5625 5624 5623 5623 5621 5620 5619 5617 5617 5616 5616 5616 5616 5616 5619 5622 5624 5626 5628 5631 5634 5636
5667 5662 5661 5659 5657 5658 5655 5650 5648 5649 5643 5640 5639 5639 5635 5629 5624 5619 5618 5618 5616 5616 5616 5615 5614 5612 5610 5609 5607 5606 5605 5604 5604 5603 5604 5607 5610 5612 5615 5617 5619 5622 5624
5667 5661 5657 5655 5654 5654 5651 5645 5643 5644 5637 5633 5634 5632 5626 5621 5615 5613 5610 5609 5609 5608 5608 5607 5605 5603 5602 5599 5598 5596 5595 5594 5593 5593 5594 5596 5598 5600 5603 5606 5608 5611 5613
5663 5662 5656 5654 5651 5648 5646 5640 5638 5637 5633 5629 5627 5623 5618 5613 5609 5606 5603 5603 5602 5602 5601 5598 5597 5596 5594 5592 5589 5587 5585 5584 5583 5583 5584 5585 5587 5589 5591 5593 5596 5598 5601
5664 5658 5655 5651 5647 5645 5641 5636 5634 5631 5628 5623 5620 5616 5610 5606 5602 5599 5597 5596 5596 5594 5592 5591 5589 5588 5585 5582 5580 5578 5577 5576 5575 5575 5574 5573 5574 5576 5578 5581 5582 5585 5587
5663 5657 5653 5649 5646 5643 5638 5632 5629 5626 5622 5617 5613 5608 5603 5600 5596 5593 5591 5589 5589 5587 5585 5583 5581 5579 5576 5573 5571 5568 5567 5566 5566 5564 5563 5562 5563 5564 5565 5566 5567 5568 5569
5666 5657 5653 5647 5644 5640 5634 5628 5624 5621 5616 5610 5606 5601 5596 5593 5590 5587 5584 5583 5582 5580 5578 5576 5574 5572 5569 5566 5562 5561 5559 5557 5556 5555 5555 5554 5552 5550 5551 5551 5551 5552 5553
5664 5656 5650 5647 5642 5636 5630 5624 5620 5615 5609 5603 5599 5593 5589 5587 5583 5580 5579 5577 5575 5572 5569 5567 5563 5560 5558 5554 5552 5551 5549 5548 5546 5544 5542 5541 5539 5537 5537 5535 5535 5534 5532
5662 5655 5649 5645 5639 5632 5625 5621 5615 5608 5602 5596 5591 5586 5582 5580 5576 5575 5573 5569 5567 5563 5559 5556 5552 5548 5544 5543 5543 5542 5540 5539 5536 5533 5530 5527 5524 5522 5519 5517 5515 5513 5512
5658 5652 5647 5642 5635 5628 5621 5615 5606 5599 5592 5588 5584 5579 5576 5573 5570 5569 5564 5561 5558 5554 5549 5544 5539 5536 5532 5530 5532 5533 5531 5530 5526 5523 5518 5515 5510 5507 5502 5499 5496 5492 5488
5654 5650 5647 5641 5634 5627 5618 5610 5599 5593 5584 5579 5576 5573 5570 5566 5564 5561 5557 5553 5549 5544 5539 5535 5529 5522 5519 5518 5518 5520 5519 5517 5514 5510 5507 5501 5496 5491 5485 5479 5474 5470 5465
5659 5652 5646 5642 5634 5627 5619 5610 5600 5591 5580 5576 5570 5566 5563 5560 5558 5554 5550 5545 5540 5535 5530 5524 5518 5511 5506 5503 5500 5499 5503 5504 5502 5501 5493 5487 5480 5473 5466 5456 5450 5442 5436
5662 5657 5649 5640 5629 5623 5614 5601 5591 5581 5572 5566 5560 5558 5556 5554 5551 5547 5542 5538 5533 5526 5519 5513 5507 5500 5493 5489 5487 5483 5479 5476 5477 5484 5479 5469 5461 5452 5444 5433 5423 5412 5410
5669 5656 5647 5638 5628 5619 5609 5600 5594 5588 5577 5567 5559 5554 5549 5547 5543 5539 5535 5530 5524 5516 5510 5503 5497 5490 5483 5478 5474 5471 5463 5455 5451 5456 5460 5451 5444 5432 5424 5413 5399 5390 5381
5664 5657 5647 5635 5626 5618 5608 5602 5592 5583 5572 5562 5554 5547 5543 5539 5535 5531 5527 5521 5514 5508 5501 5494 5487 5480 5474 5468 5462 5457 5449 5442 5434 5427 5437 5439 5431 5419 5402 5394 5379 5369 5350
5661 5652 5642 5633 5624 5615 5607 5599 5591 5580 5567 5557 5548 5541 5535 5530 5526 5523 5517 5512 5504 5497 5490 5484 5477 5471 5463 5457 5451 5444 5437 5430 5426 5415 5416 5415 5411 5411 5391 5371 5358 5347 5327